TimeCST,TemperatureF,Dew PointF,Humidity,Sea Level PressureIn,VisibilityMPH,Wind Direction,Wind SpeedMPH,Gust SpeedMPH,PrecipitationIn,Events,Conditions,WindDirDegrees,DateUTC
12:53 AM,16.0,7.0,68,30.48,10.0,Calm,Calm,-,N/A,,Clear,0,2014-01-29 06:53:00
1:53 AM,12.9,7.0,77,30.47,10.0,Calm,Calm,-,N/A,,Clear,0,2014-01-29 07:53:00
2:53 AM,12.9,7.0,77,30.45,10.0,Calm,Calm,-,N/A,,Clear,0,2014-01-29 08:53:00
3:53 AM,12.9,7.0,77,30.46,10.0,Calm,Calm,-,N/A,,Clear,0,2014-01-29 09:53:00
4:53 AM,12.9,8.1,81,30.44,10.0,Calm,Calm,-,N/A,,Clear,0,2014-01-29 10:53:00
5:53 AM,14.0,8.1,77,30.44,10.0,Calm,Calm,-,N/A,,Clear,0,2014-01-29 11:53:00
6:53 AM,9.0,5.0,84,30.45,10.0,South,6.9,-,N/A,,Partly Cloudy,170,2014-01-29 12:53:00
7:53 AM,17.1,10.0,74,30.47,10.0,WSW,4.6,-,N/A,,Scattered Clouds,240,2014-01-29 13:53:00
8:53 AM,24.1,14.0,65,30.48,10.0,SSW,8.1,-,N/A,,Scattered Clouds,210,2014-01-29 14:53:00
9:53 AM,32.0,12.9,45,30.49,10.0,South,12.7,19.6,N/A,,Partly Cloudy,190,2014-01-29 15:53:00
10:53 AM,36.0,12.9,39,30.48,10.0,SSW,8.1,-,N/A,,Partly Cloudy,210,2014-01-29 16:53:00
11:53 AM,39.0,14.0,36,30.44,10.0,SSE,10.4,17.3,N/A,,Partly Cloudy,160,2014-01-29 17:53:00
12:53 PM,42.1,12.9,31,30.38,10.0,South,11.5,-,N/A,,Clear,170,2014-01-29 18:53:00
1:53 PM,44.1,12.0,27,30.35,10.0,SSE,11.5,18.4,N/A,,Clear,160,2014-01-29 19:53:00
2:53 PM,44.1,10.0,25,30.32,10.0,South,6.9,17.3,N/A,,Partly Cloudy,180,2014-01-29 20:53:00
3:53 PM,44.1,10.9,26,30.30,10.0,South,11.5,17.3,N/A,,Mostly Cloudy,180,2014-01-29 21:53:00
4:53 PM,44.1,10.9,26,30.29,10.0,South,13.8,-,N/A,,Mostly Cloudy,170,2014-01-29 22:53:00
5:53 PM,39.9,10.9,31,30.25,10.0,South,10.4,-,N/A,,Scattered Clouds,170,2014-01-29 23:53:00
6:53 PM,39.0,10.9,32,30.24,10.0,South,12.7,-,N/A,,Partly Cloudy,170,2014-01-30 00:53:00
7:53 PM,37.0,10.0,33,30.24,10.0,SSE,15.0,-,N/A,,Partly Cloudy,160,2014-01-30 01:53:00
8:53 PM,35.1,10.9,37,30.24,10.0,South,9.2,-,N/A,,Clear,170,2014-01-30 02:53:00
9:53 PM,34.0,10.9,38,30.20,10.0,South,13.8,-,N/A,,Clear,170,2014-01-30 03:53:00
10:53 PM,33.1,10.9,40,30.19,10.0,South,11.5,-,N/A,,Clear,170,2014-01-30 04:53:00
11:53 PM,33.1,12.0,42,30.18,10.0,South,11.5,19.6,N/A,,Clear,170,2014-01-30 05:53:00